• Currently

    Reported at Lexington, Jim Kelly Field Airport, NE
    2:55 PM CST WED APR 26 2017
  • 48°F9°C
  • Mostly Cloudy
    Mostly Cloudy
  • Feels Like:48°F9°CDew Point:34°F1°CHumidity:58% Winds:N 13 mph G 2221 kph G 35Pressure:29.74 in1007 hPaVisibility:10.00 miles16090.00 meters
Time Weather Temp Dew Point
Humidity Winds Visibility Pressure Precipitation
1 hr 24 hr
Thursday, April 27
15:55 15:55 Mostly Cloudy Mostly Cloudy 49°F9°C 33°F0°C 54% N 13 mphN 20 kph 10.0 miles16.1 km 29.74 in1007 hPa 0.00 in0.00 mm --
15:35 15:35 Partly Cloudy Partly Cloudy 48°F9°C 33°F0°C 56% N 14 mphN 22 kph 10.0 miles16.1 km 29.74 in1007 hPa 0.00 in0.00 mm --
15:15 15:15 Mostly Cloudy Mostly Cloudy 49°F9°C 33°F1°C 55% NNW 17 mphNNW 28 kph 10.0 miles16.1 km 29.74 in1007 hPa 0.00 in0.00 mm --
14:55 14:55 Partly Cloudy Partly Cloudy 48°F9°C 33°F0°C 56% N 15 mphN 24 kph 10.0 miles16.1 km 29.74 in1007 hPa 0.00 in0.00 mm --
14:35 14:35 Mostly Cloudy Mostly Cloudy 47°F8°C 33°F0°C 57% N 17 mphN 28 kph 10.0 miles16.1 km 29.74 in1007 hPa 0.00 in0.00 mm --
14:15 14:15 Mostly Cloudy Mostly Cloudy 46°F8°C 33°F0°C 59% N 17 mphN 28 kph 10.0 miles16.1 km 29.74 in1007 hPa 0.00 in0.00 mm --
13:55 13:55 Mostly Cloudy Mostly Cloudy 46°F8°C 32°F0°C 59% N 20 mphN 31 kph 10.0 miles16.1 km 29.74 in1007 hPa 0.00 in0.00 mm --
13:35 13:35 Mostly Cloudy Mostly Cloudy 45°F7°C 32°F0°C 62% N 16 mphN 26 kph 10.0 miles16.1 km 29.74 in1007 hPa 0.00 in0.00 mm --
13:15 13:15 Cloudy Cloudy 43°F6°C 32°F0°C 65% NNW 17 mphNNW 28 kph 10.0 miles16.1 km 29.74 in1007 hPa 0.00 in0.00 mm --
12:55 12:55 Cloudy Cloudy 42°F6°C 32°F0°C 67% NNW 18 mphNNW 30 kph 10.0 miles16.1 km 29.77 in1008 hPa 0.00 in0.00 mm --
12:35 12:35 Cloudy Cloudy 42°F5°C 32°F-0°C 68% NNW 18 mphNNW 30 kph 10.0 miles16.1 km 29.77 in1008 hPa 0.00 in0.00 mm --
12:15 12:15 Cloudy Cloudy 41°F5°C 31°F-0°C 69% NNW 21 mphNNW 33 kph 10.0 miles16.1 km 29.77 in1008 hPa 0.00 in0.00 mm --
11:55 11:55 Cloudy Cloudy 40°F4°C 31°F-1°C 70% NNW 21 mphNNW 33 kph 10.0 miles16.1 km 29.77 in1008 hPa 0.00 in0.00 mm --
11:35 11:35 Cloudy Cloudy 40°F4°C 31°F-0°C 72% NNW 21 mphNNW 33 kph 10.0 miles16.1 km 29.77 in1008 hPa 0.00 in0.00 mm --
11:15 11:15 Cloudy Cloudy 39°F4°C 31°F-1°C 71% NNW 18 mphNNW 30 kph 10.0 miles16.1 km 29.77 in1008 hPa 0.00 in0.00 mm --
10:55 10:55 Cloudy Cloudy 39°F4°C 30°F-1°C 72% NNW 22 mphNNW 35 kph 10.0 miles16.1 km 29.77 in1008 hPa 0.00 in0.00 mm --
10:35 10:35 Cloudy Cloudy 39°F4°C 31°F-1°C 72% NNW 22 mphNNW 35 kph 10.0 miles16.1 km 29.77 in1008 hPa 0.00 in0.00 mm --
10:15 10:15 Cloudy Cloudy 38°F3°C 29°F-2°C 72% NNW 20 mphNNW 31 kph 10.0 miles16.1 km 29.77 in1008 hPa 0.00 in0.00 mm --
09:55 09:55 Cloudy Cloudy 37°F2°C 29°F-2°C 74% N 20 mphN 31 kph 10.0 miles16.1 km 29.77 in1008 hPa 0.00 in0.00 mm --
09:35 09:35 Cloudy Cloudy 37°F2°C 29°F-2°C 73% NNW 23 mphNNW 37 kph 10.0 miles16.1 km 29.77 in1008 hPa 0.00 in0.00 mm --
09:15 09:15 Cloudy Cloudy 36°F2°C 29°F-2°C 75% NNW 22 mphNNW 35 kph 10.0 miles16.1 km 29.77 in1008 hPa 0.00 in0.00 mm --
08:55 08:55 Cloudy Cloudy 35°F2°C 28°F-2°C 74% NNW 21 mphNNW 33 kph 10.0 miles16.1 km 29.77 in1008 hPa 0.00 in0.00 mm --
08:35 08:35 Cloudy Cloudy 35°F2°C 28°F-2°C 76% NNW 22 mphNNW 35 kph 10.0 miles16.1 km 29.77 in1008 hPa 0.00 in0.00 mm --
08:15 08:15 Cloudy Cloudy 34°F1°C 28°F-2°C 79% NNW 16 mphNNW 26 kph 10.0 miles16.1 km 29.77 in1008 hPa 0.00 in0.00 mm --
07:55 07:55 Cloudy Cloudy 34°F1°C 27°F-3°C 77% NNW 18 mphNNW 30 kph 10.0 miles16.1 km 29.77 in1008 hPa 0.00 in0.00 mm --
07:35 07:35 Cloudy Cloudy 34°F1°C 28°F-2°C 79% NNW 12 mphNNW 19 kph 10.0 miles16.1 km 29.77 in1008 hPa 0.00 in0.00 mm --
07:15 07:15 Cloudy Cloudy 33°F1°C 27°F-3°C 78% NNW 14 mphNNW 22 kph 10.0 miles16.1 km 29.77 in1008 hPa 0.00 in0.00 mm --
06:55 06:55 Cloudy Cloudy 33°F1°C 27°F-3°C 78% NNW 16 mphNNW 26 kph 10.0 miles16.1 km 29.77 in1008 hPa 0.00 in0.00 mm --
06:35 06:35 Cloudy Cloudy 33°F1°C 27°F-3°C 79% NNW 16 mphNNW 26 kph 10.0 miles16.1 km 29.77 in1008 hPa 0.00 in0.00 mm --
06:15 06:15 Cloudy Cloudy 33°F1°C 28°F-2°C 81% NNW 14 mphNNW 22 kph 10.0 miles16.1 km 29.77 in1008 hPa 0.00 in0.00 mm --
05:55 05:55 Cloudy Cloudy 33°F1°C 28°F-2°C 82% NNW 14 mphNNW 22 kph 10.0 miles16.1 km 29.77 in1008 hPa 0.00 in0.00 mm --
05:35 05:35 Cloudy Cloudy 33°F1°C 28°F-2°C 80% N 15 mphN 24 kph 10.0 miles16.1 km 29.77 in1008 hPa 0.00 in0.00 mm --
05:15 05:15 Cloudy Cloudy 33°F1°C 27°F-3°C 79% NNW 21 mphNNW 33 kph 10.0 miles16.1 km 29.77 in1008 hPa 0.00 in0.00 mm --
04:55 04:55 Cloudy Cloudy 33°F1°C 28°F-2°C 81% NNW 17 mphNNW 28 kph 10.0 miles16.1 km 29.77 in1008 hPa 0.00 in0.00 mm --
04:35 04:35 Cloudy Cloudy 33°F1°C 28°F-2°C 80% NNW 18 mphNNW 30 kph 10.0 miles16.1 km 29.77 in1008 hPa 0.00 in0.00 mm --
04:15 04:15 Cloudy Cloudy 34°F1°C 28°F-2°C 78% NNW 21 mphNNW 33 kph 10.0 miles16.1 km 29.77 in1008 hPa 0.00 in0.00 mm --
03:55 03:55 Cloudy Cloudy 34°F1°C 28°F-2°C 78% NNW 20 mphNNW 31 kph 10.0 miles16.1 km 29.77 in1008 hPa 0.00 in0.00 mm --
03:35 03:35 Cloudy Cloudy 34°F1°C 28°F-2°C 79% NNW 22 mphNNW 35 kph 10.0 miles16.1 km 29.74 in1007 hPa 0.00 in0.00 mm --
03:15 03:15 Cloudy Cloudy 34°F1°C 29°F-2°C 82% NNW 21 mphNNW 33 kph 10.0 miles16.1 km 29.74 in1007 hPa 0.00 in0.00 mm --
02:55 02:55 Cloudy Cloudy 34°F1°C 29°F-2°C 82% NNW 20 mphNNW 31 kph 10.0 miles16.1 km 29.74 in1007 hPa 0.00 in0.00 mm --
02:35 02:35 Cloudy Cloudy 35°F2°C 29°F-2°C 80% NNW 23 mphNNW 37 kph 10.0 miles16.1 km 29.74 in1007 hPa 0.00 in0.00 mm --
02:15 02:15 Cloudy Cloudy 35°F2°C 30°F-1°C 82% NNW 18 mphNNW 30 kph 10.0 miles16.1 km 29.74 in1007 hPa 0.00 in0.00 mm --
01:55 01:55 Cloudy Cloudy 35°F2°C 30°F-1°C 82% NNW 22 mphNNW 35 kph 10.0 miles16.1 km 29.77 in1008 hPa 0.00 in0.00 mm --
01:35 01:35 Cloudy Cloudy 35°F2°C 30°F-1°C 82% NNW 22 mphNNW 35 kph 10.0 miles16.1 km 29.77 in1008 hPa 0.00 in0.00 mm --
01:15 01:15 Cloudy Cloudy 35°F2°C 31°F-1°C 84% NNW 18 mphNNW 30 kph 10.0 miles16.1 km 29.77 in1008 hPa 0.00 in0.00 mm --
00:55 00:55 Cloudy Cloudy 35°F2°C 31°F-1°C 84% NNW 16 mphNNW 26 kph 10.0 miles16.1 km 29.74 in1007 hPa 0.00 in0.00 mm --
00:35 00:35 Cloudy Cloudy 36°F2°C 31°F-0°C 84% NNW 17 mphNNW 28 kph 10.0 miles16.1 km 29.74 in1007 hPa 0.00 in0.00 mm --
00:15 00:15 Cloudy Cloudy 36°F2°C 31°F-0°C 83% N 15 mphN 24 kph 10.0 miles16.1 km 29.74 in1007 hPa 0.00 in0.00 mm --